| time (UTC) | temp F | wind direction | speed MPH | gust MPH | rain 1hr in | rain 24hr in | rain mn in | humidity % | barometer mb |
| 20260504190703 | 76 | 244 | 11.0 | 16.0 | 0.00 | 0.00 | 0.00 | 33 | 972.3 |
| 20260504190203 | 77 | 246 | 10.0 | 22.0 | 0.00 | 0.00 | 0.00 | 33 | 972.4 |
| 20260504184703 | 76 | 252 | 9.0 | 28.0 | 0.00 | 0.00 | 0.00 | 34 | 972.5 |
| 20260504184204 | 76 | 254 | 12.0 | 28.0 | 0.00 | 0.00 | 0.00 | 33 | 972.5 |
| 20260504183705 | 76 | 238 | 12.0 | 23.0 | 0.00 | 0.00 | 0.00 | 34 | 972.4 |
| 20260504183204 | 76 | 245 | 11.0 | 23.0 | 0.00 | 0.00 | 0.00 | 34 | 972.4 |
| 20260504181704 | 76 | 249 | 12.0 | 28.0 | 0.00 | 0.00 | 0.00 | 33 | 972.7 |
| 20260504181204 | 76 | 243 | 13.0 | 28.0 | 0.00 | 0.00 | 0.00 | 34 | 972.8 |
| 20260504180705 | 76 | 243 | 9.0 | 16.0 | 0.00 | 0.00 | 0.00 | 34 | 972.6 |
| 20260504180204 | 76 | 255 | 7.0 | 18.0 | 0.00 | 0.00 | 0.00 | 34 | 972.5 |
| 20260504174705 | 76 | 250 | 6.0 | 14.0 | 0.00 | 0.00 | 0.00 | 35 | 972.7 |
| 20260504174205 | 75 | 231 | 6.0 | 14.0 | 0.00 | 0.00 | 0.00 | 35 | 972.7 |
| 20260504173703 | 75 | 238 | 8.0 | 16.0 | 0.00 | 0.00 | 0.00 | 35 | 972.7 |
| 20260504173204 | 75 | 251 | 6.0 | 16.0 | 0.00 | 0.00 | 0.00 | 35 | 973.0 |
| 20260504171703 | 74 | 218 | 7.0 | 21.0 | 0.00 | 0.00 | 0.00 | 34 | 972.9 |
| 20260504171205 | 74 | 244 | 11.0 | 21.0 | 0.00 | 0.00 | 0.00 | 34 | 973.0 |
| 20260504170705 | 74 | 234 | 6.0 | 14.0 | 0.00 | 0.00 | 0.00 | 36 | 973.2 |
| 20260504170203 | 74 | 228 | 6.0 | 15.0 | 0.00 | 0.00 | 0.00 | 36 | 973.1 |
| 20260504160204 | 58 | 159 | 3.0 | 9.0 | 0.00 | 0.00 | 0.00 | 60 | 974.2 |
| 20260504150203 | 57 | 193 | 3.0 | 9.0 | 0.00 | 0.00 | 0.00 | 63 | 975.1 |
| 20260504141205 | 56 | 159 | 2.0 | 8.0 | 0.00 | 0.00 | 0.00 | 67 | 975.8 |
| 20260504140703 | 57 | 171 | 2.0 | 8.0 | 0.00 | 0.00 | 0.00 | 66 | 975.9 |
| 20260504140203 | 57 | 218 | 3.0 | 8.0 | 0.00 | 0.00 | 0.00 | 65 | 976.0 |
| 20260504130704 | 55 | 223 | 5.0 | 8.0 | 0.00 | 0.00 | 0.00 | 68 | 976.7 |
| 20260504120205 | 51 | 143 | 2.0 | 3.0 | 0.00 | 0.00 | 0.00 | 73 | 977.0 |
| 20260504110204 | 42 | 231 | 1.0 | 3.0 | 0.00 | 0.00 | 0.00 | 93 | 977.4 |
| 20260504034703 | 46 | 242 | 1.0 | 2.0 | 0.00 | 0.00 | 0.00 | 92 | 980.5 |
| 20260504033704 | 46 | 247 | 1.0 | 3.0 | 0.00 | 0.00 | 0.00 | 92 | 980.6 |
| 20260504031704 | 46 | 213 | 1.0 | 2.0 | 0.00 | 0.00 | 0.00 | 92 | 980.6 |
| 20260504031204 | 46 | 237 | 2.0 | 3.0 | 0.00 | 0.00 | 0.00 | 92 | 980.6 |
| 20260504030704 | 46 | 242 | 1.0 | 5.0 | 0.00 | 0.00 | 0.00 | 92 | 980.6 |
| 20260504030204 | 46 | 228 | 2.0 | 5.0 | 0.00 | 0.00 | 0.00 | 92 | 980.7 |
| 20260504024703 | 45 | 81 | 1.0 | 3.0 | 0.00 | 0.00 | 0.00 | 92 | 980.6 |
| 20260504024203 | 46 | 221 | 1.0 | 3.0 | 0.00 | 0.00 | 0.00 | 91 | 980.6 |
| 20260504023703 | 46 | 237 | 2.0 | 3.0 | 0.00 | 0.00 | 0.00 | 91 | 980.6 |
| 20260504023204 | 46 | 234 | 2.0 | 3.0 | 0.00 | 0.00 | 0.00 | 91 | 980.6 |
| 20260504021703 | 46 | 198 | 2.0 | 5.0 | 0.00 | 0.00 | 0.00 | 90 | 980.6 |
| 20260504021204 | 46 | 248 | 2.0 | 5.0 | 0.00 | 0.00 | 0.00 | 89 | 980.6 |
| 20260504020205 | 46 | 216 | 2.0 | 6.0 | 0.00 | 0.00 | 0.00 | 89 | 980.5 |
| 20260504013705 | 45 | 235 | 3.0 | 6.0 | 0.00 | 0.00 | 0.00 | 88 | 980.3 |
| 20260504013203 | 45 | 221 | 3.0 | 6.0 | 0.00 | 0.00 | 0.00 | 88 | 980.3 |
| 20260504011204 | 45 | 228 | 3.0 | 8.0 | 0.00 | 0.00 | 0.00 | 88 | 980.2 |
| 20260504010203 | 45 | 228 | 3.0 | 8.0 | 0.00 | 0.00 | 0.00 | 88 | 980.1 |
| 20260504004205 | 45 | 213 | 3.0 | 7.0 | 0.00 | 0.00 | 0.00 | 87 | 980.2 |
| 20260504003704 | 46 | 225 | 3.0 | 8.0 | 0.00 | 0.00 | 0.00 | 86 | 980.2 |
| 20260504001704 | 46 | 220 | 3.0 | 10.0 | 0.00 | 0.00 | 0.00 | 86 | 980.2 |
| 20260504001205 | 46 | 163 | 3.0 | 10.0 | 0.00 | 0.00 | 0.00 | 86 | 980.2 |
| 20260504000704 | 46 | 213 | 3.0 | 12.0 | 0.00 | 0.00 | 0.00 | 85 | 980.2 |
| 20260504000205 | 46 | 225 | 4.0 | 12.0 | 0.00 | 0.00 | 0.00 | 85 | 980.1 |
| 20260503234705 | 47 | 241 | 3.0 | 9.0 | 0.00 | 0.00 | 0.00 | 84 | 980.1 |
| 20260503233704 | 47 | 202 | 3.0 | 9.0 | 0.00 | 0.00 | 0.00 | 83 | 980.1 |
| 20260503233204 | 47 | 231 | 5.0 | 9.0 | 0.00 | 0.00 | 0.00 | 83 | 980.1 |
| 20260503231203 | 47 | 204 | 3.0 | 8.0 | 0.00 | 0.00 | 0.00 | 83 | 980.2 |
| 20260503230703 | 47 | 190 | 2.0 | 8.0 | 0.00 | 0.00 | 0.00 | 82 | 980.2 |
| 20260503230204 | 48 | 223 | 2.0 | 10.0 | 0.00 | 0.00 | 0.00 | 82 | 980.4 |
| 20260503224705 | 47 | 202 | 3.0 | 12.0 | 0.00 | 0.00 | 0.00 | 82 | 980.4 |
| 20260503224204 | 48 | 149 | 6.0 | 12.0 | 0.00 | 0.00 | 0.00 | 81 | 980.4 |
| 20260503223705 | 48 | 217 | 3.0 | 13.0 | 0.00 | 0.00 | 0.00 | 81 | 980.4 |
| 20260503221703 | 48 | 200 | 3.0 | 9.0 | 0.00 | 0.00 | 0.00 | 80 | 980.7 |
| 20260503221204 | 48 | 222 | 3.0 | 12.0 | 0.00 | 0.00 | 0.00 | 81 | 980.8 |
| 20260503220703 | 47 | 189 | 3.0 | 12.0 | 0.00 | 0.00 | 0.00 | 81 | 980.9 |
| 20260503220204 | 47 | 120 | 4.0 | 9.0 | 0.00 | 0.00 | 0.00 | 81 | 980.9 |
| 20260503214704 | 47 | 159 | 4.0 | 12.0 | 0.00 | 0.00 | 0.00 | 81 | 980.9 |
| 20260503214204 | 47 | 194 | 4.0 | 12.0 | 0.00 | 0.00 | 0.00 | 81 | 980.9 |
| 20260503213703 | 47 | 197 | 5.0 | 12.0 | 0.00 | 0.00 | 0.00 | 82 | 980.8 |
| 20260503213204 | 48 | 216 | 5.0 | 12.0 | 0.00 | 0.00 | 0.00 | 81 | 980.8 |
| 20260503211705 | 48 | 159 | 5.0 | 14.0 | 0.00 | 0.00 | 0.00 | 80 | 981.1 |
| 20260503211204 | 48 | 169 | 3.0 | 12.0 | 0.00 | 0.00 | 0.00 | 80 | 981.1 |
| 20260503210705 | 48 | 178 | 5.0 | 12.0 | 0.00 | 0.00 | 0.00 | 80 | 981.4 |
| 20260503210203 | 49 | 174 | 5.0 | 10.0 | 0.00 | 0.00 | 0.00 | 79 | 981.4 |
| 20260503204704 | 48 | 203 | 5.0 | 13.0 | 0.00 | 0.00 | 0.00 | 80 | 981.5 |
| 20260503204203 | 49 | 189 | 5.0 | 13.0 | 0.00 | 0.00 | 0.00 | 79 | 981.4 |
| 20260503203703 | 49 | 191 | 3.0 | 13.0 | 0.00 | 0.00 | 0.00 | 79 | 981.6 |
| 20260503203204 | 49 | 148 | 3.0 | 12.0 | 0.00 | 0.00 | 0.00 | 78 | 981.7 |
| 20260503201703 | 50 | 191 | 6.0 | 16.0 | 0.00 | 0.00 | 0.00 | 76 | 982.0 |
| 20260503201205 | 50 | 209 | 5.0 | 14.0 | 0.00 | 0.00 | 0.00 | 76 | 982.0 |
| 20260503200703 | 50 | 203 | 5.0 | 17.0 | 0.00 | 0.00 | 0.00 | 76 | 982.0 |
| 20260503200204 | 51 | 207 | 5.0 | 17.0 | 0.00 | 0.00 | 0.00 | 74 | 982.1 |
| 20260503194704 | 56 | 181 | 4.0 | 10.0 | 0.00 | 0.00 | 0.00 | 68 | 982.2 |
| 20260503194204 | 58 | 118 | 4.0 | 10.0 | 0.00 | 0.00 | 0.00 | 65 | 982.3 |
| 20260503193704 | 61 | 175 | 4.0 | 12.0 | 0.00 | 0.00 | 0.00 | 62 | 982.1 |
| 20260503193204 | 64 | 42 | 3.0 | 12.0 | 0.00 | 0.00 | 0.00 | 58 | 982.3 |
| 20260503191704 | 65 | 236 | 6.0 | 14.0 | 0.00 | 0.00 | 0.00 | 53 | 982.5 |
| 20260503191205 | 65 | 217 | 5.0 | 10.0 | 0.00 | 0.00 | 0.00 | 52 | 982.5 |